• In Deutschland
  • Länderverzeichnis
  • Für 7 Tage
  • Wassertemperatur
  • Satellitenkarten
  • Wetterkarte
  • Widgets
  • user-avatar
    Anmelden

    Stündliche Wetter Impfondo

    Heute, 25 September, Montag

    Zeit Temperatur Niederschläge Wind Luftdruck Luftfeuchtigkeit
    00:00 +23°C° 0 mm 0 m/S 731 mmHg 81%
    01:00 +23°C° 0 mm 0 m/S 731 mmHg 84%
    02:00 +22°C° 0 mm 0 m/S 731 mmHg 85%
    03:00 +22°C° 0 mm 0 m/S 731 mmHg 87%
    04:00 +22°C° 0 mm 0 m/S 731 mmHg 89%
    05:00 +23°C° 0 mm 0 m/S 731 mmHg 85%
    06:00 +24°C° 0 mm 0 m/S 731 mmHg 81%
    07:00 +27°C° 0 mm 1 m/S 732 mmHg 76%
    08:00 +30°C° 0,1 mm 1 m/S 732 mmHg 67%
    09:00 +32°C° 0,1 mm 1 m/S 732 mmHg 59%
    10:00 +34°C° 0,1 mm 1 m/S 732 mmHg 50%
    11:00 +34°C° 0,6 mm 1 m/S 731 mmHg 53%
    12:00 +33°C° 0,6 mm 1 m/S 731 mmHg 57%
    13:00 +34°C° 0 mm 2 m/S 730 mmHg 58%
    14:00 +33°C° 0,3 mm 1 m/S 730 mmHg 56%
    15:00 +33°C° 0,3 mm 1 m/S 729 mmHg 55%
    16:00 +33°C° 0,3 mm 1 m/S 729 mmHg 54%
    17:00 +31°C° 0 mm 1 m/S 729 mmHg 60%
    18:00 +30°C° 0 mm 1 m/S 729 mmHg 67%
    19:00 +28°C° 0 mm 1 m/S 729 mmHg 73%
    20:00 +27°C° 0,4 mm 1 m/S 730 mmHg 78%
    21:00 +26°C° 0,4 mm 1 m/S 730 mmHg 84%
    22:00 +25°C° 0,4 mm 1 m/S 731 mmHg 89%
    23:00 +25°C° 0,7 mm 1 m/S 731 mmHg 92%

    Morgen, 26 September, Dienstag

    Zeit Temperatur Niederschläge Wind Luftdruck Luftfeuchtigkeit
    00:00 +25°C° 0,7 mm 1 m/S 730 mmHg 95%
    01:00 +24°C° 0,7 mm 1 m/S 730 mmHg 98%
    02:00 +22°C° 0,3 mm 0 m/S 730 mmHg 98%
    03:00 +22°C° 0,3 mm 0 m/S 730 mmHg 98%
    04:00 +22°C° 0,3 mm 0 m/S 730 mmHg 98%
    05:00 +22°C° 0,2 mm 0 m/S 730 mmHg 97%
    06:00 +22°C° 0,2 mm 0 m/S 730 mmHg 97%
    07:00 +23°C° 0,2 mm 0 m/S 731 mmHg 96%
    08:00 +24°C° 0,2 mm 0 m/S 731 mmHg 90%
    09:00 +27°C° 0,2 mm 1 m/S 731 mmHg 85%
    10:00 +29°C° 0,2 mm 1 m/S 732 mmHg 79%
    11:00 +31°C° 0 mm 1 m/S 731 mmHg 67%
    12:00 +33°C° 0 mm 1 m/S 730 mmHg 54%
    13:00 +36°C° 0 mm 1 m/S 730 mmHg 42%
    14:00 +35°C° 0 mm 1 m/S 729 mmHg 45%
    15:00 +34°C° 0 mm 1 m/S 729 mmHg 49%
    16:00 +33°C° 0 mm 1 m/S 728 mmHg 52%
    17:00 +31°C° 0,1 mm 1 m/S 729 mmHg 60%
    18:00 +29°C° 0,1 mm 1 m/S 729 mmHg 69%
    19:00 +27°C° 0,1 mm 1 m/S 729 mmHg 77%
    20:00 +27°C° 0,1 mm 1 m/S 730 mmHg 81%
    21:00 +26°C° 0,1 mm 1 m/S 730 mmHg 85%
    22:00 +25°C° 0,1 mm 1 m/S 730 mmHg 88%
    23:00 +25°C° 0,6 mm 1 m/S 730 mmHg 90%

    übermorgen, 27 September, Mittwoch

    Zeit Temperatur Niederschläge Wind Luftdruck Luftfeuchtigkeit
    00:00 +24°C° 0,6 mm 1 m/S 730 mmHg 92%
    01:00 +24°C° 0,6 mm 1 m/S 730 mmHg 94%
    02:00 +24°C° 0,9 mm 1 m/S 730 mmHg 95%
    03:00 +23°C° 0,9 mm 1 m/S 730 mmHg 96%
    04:00 +21°C° 0,9 mm 0 m/S 730 mmHg 97%
    05:00 +22°C° 0,6 mm 0 m/S 730 mmHg 96%
    06:00 +22°C° 0,6 mm 0 m/S 731 mmHg 95%
    07:00 +22°C° 0,6 mm 0 m/S 732 mmHg 94%
    08:00 +27°C° 0,1 mm 1 m/S 732 mmHg 83%
    09:00 +29°C° 0,1 mm 1 m/S 732 mmHg 72%
    10:00 +31°C° 0,1 mm 1 m/S 733 mmHg 61%
    11:00 +33°C° 0,1 mm 1 m/S 732 mmHg 54%
    12:00 +35°C° 0,1 mm 1 m/S 731 mmHg 47%
    13:00 +37°C° 0,1 mm 1 m/S 729 mmHg 40%
    14:00 +36°C° 0,1 mm 1 m/S 729 mmHg 45%
    15:00 +34°C° 0,1 mm 1 m/S 729 mmHg 50%
    16:00 +33°C° 0,1 mm 1 m/S 729 mmHg 54%
    17:00 +31°C° 0,4 mm 1 m/S 729 mmHg 63%
    18:00 +29°C° 0,4 mm 1 m/S 729 mmHg 71%
    19:00 +27°C° 0,4 mm 1 m/S 730 mmHg 79%
    20:00 +26°C° 2 mm 1 m/S 730 mmHg 85%
    21:00 +25°C° 2 mm 1 m/S 731 mmHg 91%
    22:00 +25°C° 2 mm 1 m/S 732 mmHg 97%
    23:00 +24°C° 0,2 mm 1 m/S 731 mmHg 97%

    28 September, Donnerstag

    Zeit Temperatur Niederschläge Wind Luftdruck Luftfeuchtigkeit
    00:00 +24°C° 0,2 mm 1 m/S 731 mmHg 98%
    01:00 +24°C° 0,2 mm 1 m/S 730 mmHg 98%
    02:00 +24°C° 0 mm 1 m/S 730 mmHg 98%
    03:00 +24°C° 0 mm 1 m/S 730 mmHg 98%
    04:00 +22°C° 0 mm 0 m/S 730 mmHg 98%
    05:00 +22°C° 0 mm 0 m/S 731 mmHg 96%
    06:00 +23°C° 0 mm 0 m/S 731 mmHg 95%
    07:00 +23°C° 0 mm 0 m/S 732 mmHg 94%
    08:00 +26°C° 0 mm 0 m/S 733 mmHg 83%
    09:00 +30°C° 0 mm 1 m/S 733 mmHg 71%
    10:00 +32°C° 0 mm 1 m/S 733 mmHg 60%
    11:00 +34°C° 0,1 mm 1 m/S 732 mmHg 53%
    12:00 +35°C° 0,1 mm 0 m/S 731 mmHg 46%
    13:00 +37°C° 0,1 mm 0 m/S 730 mmHg 39%
    14:00 +35°C° 0 mm 0 m/S 730 mmHg 43%
    15:00 +35°C° 0 mm 1 m/S 729 mmHg 48%
    16:00 +33°C° 0 mm 1 m/S 729 mmHg 53%
    17:00 +32°C° 0 mm 1 m/S 729 mmHg 60%
    18:00 +30°C° 0 mm 1 m/S 730 mmHg 68%
    19:00 +28°C° 0 mm 1 m/S 730 mmHg 75%
    20:00 +27°C° 0 mm 1 m/S 730 mmHg 78%
    21:00 +26°C° 0 mm 1 m/S 731 mmHg 81%
    22:00 +26°C° 0 mm 1 m/S 731 mmHg 84%
    23:00 +26°C° 0 mm 1 m/S 730 mmHg 84%

    29 September, Freitag

    Zeit Temperatur Niederschläge Wind Luftdruck Luftfeuchtigkeit
    00:00 +25°C° 0 mm 1 m/S 730 mmHg 85%
    01:00 +25°C° 0 mm 1 m/S 730 mmHg 85%
    02:00 +25°C° 0 mm 1 m/S 730 mmHg 87%
    03:00 +24°C° 0 mm 1 m/S 730 mmHg 89%
    04:00 +24°C° 0 mm 1 m/S 730 mmHg 91%
    05:00 +25°C° 0,1 mm 1 m/S 731 mmHg 89%
    06:00 +23°C° 0,1 mm 0 m/S 731 mmHg 88%
    07:00 +24°C° 0,1 mm 0 m/S 732 mmHg 86%
    08:00 +28°C° 0,3 mm 1 m/S 732 mmHg 77%
    09:00 +31°C° 0,3 mm 1 m/S 732 mmHg 67%
    10:00 +33°C° 0,3 mm 1 m/S 732 mmHg 57%
    11:00 +32°C° 2,1 mm 1 m/S 731 mmHg 64%
    12:00 +31°C° 2,1 mm 1 m/S 730 mmHg 71%
    13:00 +31°C° 2,1 mm 1 m/S 729 mmHg 78%
    14:00 +30°C° 1,1 mm 1 m/S 730 mmHg 81%
    15:00 +29°C° 1,1 mm 1 m/S 730 mmHg 83%
    16:00 +28°C° 1,1 mm 1 m/S 730 mmHg 85%
    17:00 +27°C° 0,2 mm 1 m/S 730 mmHg 88%
    18:00 +26°C° 0,2 mm 1 m/S 730 mmHg 91%
    19:00 +23°C° 0,2 mm 0 m/S 731 mmHg 93%
    20:00 +25°C° 0 mm 1 m/S 731 mmHg 94%
    21:00 +25°C° 0 mm 1 m/S 730 mmHg 94%
    22:00 +25°C° 0 mm 1 m/S 730 mmHg 94%
    23:00 +24°C° 0 mm 1 m/S 730 mmHg 94%

    30 September, Samstag

    Zeit Temperatur Niederschläge Wind Luftdruck Luftfeuchtigkeit
    00:00 +24°C° 0 mm 1 m/S 730 mmHg 95%
    01:00 +22°C° 0 mm 0 m/S 729 mmHg 96%
    02:00 +21°C° 0 mm 0 m/S 729 mmHg 96%
    03:00 +21°C° 0 mm 0 m/S 730 mmHg 96%
    04:00 +21°C° 0 mm 0 m/S 730 mmHg 96%
    05:00 +22°C° 0 mm 0 m/S 730 mmHg 95%
    06:00 +22°C° 0 mm 0 m/S 731 mmHg 93%
    07:00 +23°C° 0 mm 0 m/S 732 mmHg 92%
    08:00 +26°C° 0 mm 0 m/S 732 mmHg 78%
    09:00 +31°C° 0 mm 1 m/S 732 mmHg 65%
    10:00 +34°C° 0 mm 1 m/S 732 mmHg 51%
    11:00 +33°C° 0,5 mm 1 m/S 731 mmHg 53%
    12:00 +33°C° 0,5 mm 1 m/S 730 mmHg 54%
    13:00 +34°C° 0,5 mm 2 m/S 729 mmHg 56%
    14:00 +33°C° 0 mm 1 m/S 729 mmHg 54%
    15:00 +33°C° 0 mm 1 m/S 729 mmHg 52%
    16:00 +33°C° 0 mm 1 m/S 728 mmHg 51%
    17:00 +31°C° 0 mm 1 m/S 729 mmHg 58%
    18:00 +29°C° 0 mm 1 m/S 729 mmHg 66%
    19:00 +28°C° 0 mm 1 m/S 730 mmHg 73%
    20:00 +27°C° 0 mm 1 m/S 730 mmHg 75%
    21:00 +27°C° 0 mm 1 m/S 730 mmHg 77%
    22:00 +26°C° 0 mm 1 m/S 730 mmHg 79%
    23:00 +26°C° 0 mm 1 m/S 730 mmHg 82%
    Mehr zeigen